Hourly Data Report for April 03, 2020

NANAIMO A
BRITISH COLUMBIA
Current Station Operator: NAVCAN

49°03'16.000" N
123°52'12.000" W
28.00 m
1025365
YCD

Download Data

Hourly Data (April 2020)
Hourly Data Report for April 3, 2020
TIME
LST
Temp Definition
°C
Dew Point Definition
°C
Rel Hum Definition
%
Precip. Amount Definition
mm

Wind Dir Definition
10's deg

Wind Spd Definition
km/h
Visibility Definition
km
Stn Press Definition
kPa
Hmdx Definition


Wind Chill Definition


Weather Definition


00:00 2.8 -1.4 74 LegendMM 29 7 LegendMM 101.60     LegendNANA
01:00 -0.2 -1.8 89 LegendMM 19 3 LegendMM 101.55   -1 LegendNANA
02:00 -0.7 -1.6 93 LegendMM 16 1 LegendMM 101.53   -1 LegendNANA
03:00 -0.4 -1.8 90 LegendMM 36 5 LegendMM 101.51   -2 LegendNANA
04:00 0.7 -1.3 86 LegendMM 25 9 LegendMM 101.49     LegendNANA
05:00 0.4 -1.3 88 LegendMM 26 5 LegendMM 101.47     LegendNANA
06:00 0.4 -0.8 92 LegendMM 14 2 LegendMM 101.44     LegendNANA
07:00 1.0 -0.2 92 LegendMM 3 5 LegendMM 101.41     LegendNANA
08:00 2.9 0.7 86 LegendMM 18 2 LegendMM 101.38     LegendNANA
09:00 4.7 0.4 74 LegendMM 7 3 LegendMM 101.37     LegendNANA
10:00 6.8 0.7 65 LegendMM 12 10 LegendMM 101.35     LegendNANA
11:00 5.1 -0.2 68 LegendMM 4 1 LegendMM 101.35     LegendNANA
12:00 4.9 -2.0 61 LegendMM 3 5 LegendMM 101.35     LegendNANA
13:00 5.4 1.1 74 LegendMM 15 14 LegendMM 101.32     LegendNANA
14:00 6.5 -0.9 59 LegendMM 19 6 LegendMM 101.27     LegendNANA
15:00 6.0 -1.2 60 LegendMM 5 4 LegendMM 101.25     LegendNANA
16:00 6.1 0.1 65 LegendMM 6 10 LegendMM 101.23     LegendNANA
17:00 5.3 0.6 71 LegendMM 22 8 LegendMM 101.20     LegendNANA
18:00 4.7 0.9 77 LegendMM 21 8 LegendMM 101.18     LegendNANA
19:00 3.6 2.0 89 LegendMM 21 2 LegendMM 101.17     LegendNANA
20:00 3.4 1.8 89 LegendMM 26 3 LegendMM 101.16     LegendNANA
21:00 2.8 1.6 92 LegendMM 23 5 LegendMM 101.13     LegendNANA
22:00 3.1 1.0 86 LegendMM 26 11 LegendMM 101.10     LegendNANA
23:00 2.5 1.1 91 LegendMM 0 1 LegendMM 101.10     LegendNANA

Notes on Data Quality.

Legend

  • E = Estimated
  • M = Missing
  • NA = Not Available*
  • [empty] = Indicates an unobserved value
Date modified: